Simultaneous Nadir Overpasses (SNOs) Predictions

Prediction of SNOs between METOP-A and TERRA Satellite Orbit:

Table of predicted SNOs for the next 14.0 days since TLE Epoch: 10/18/2014
Index Date (METOP-A) Time (METOP-A) Lat,Lon (METOP-A) SZA (METOP-A ) Date (TERRA) Time (TERRA) Lat,Lon (TERRA) SZA (TERRA ) Distance(km) Time Diff (sec)
1 10/20/2014 18:00:21 -81.29, 136.80 85.11 10/20/2014 18:01:04 -81.29, 136.65 85.11 2.67 43
2 10/20/2014 18:51:02 81.29, -55.80 94.91 10/20/2014 18:50:30 81.30, -55.64 94.92 2.78 32
3 10/23/2014 13:34:42 -81.29,-156.93 84.13 10/23/2014 13:35:18 -81.28,-157.11 84.14 3.17 36
4 10/23/2014 14:25:22 81.29, 10.82 95.94 10/23/2014 14:24:43 81.30, 10.95 95.94 2.49 39
5 10/26/2014 09:09:03 -81.29, -90.69 83.18 10/26/2014 09:09:31 -81.28, -90.68 83.17 0.76 28
6 10
